Terminal Aerodrome Forecast
Issued by NWS Charleston, WV

Current Version | Previous Version | Text Only | Print | Product List | Glossary Off
Versions: 1 2 3 4 5 6 7 8 9 10 11 12 13 14 15 16 17 18 19 20

000
FTUS41 KRLX 151700
TAFPKB
TAF
KPKB 151725Z 1518/1618 32009G19KT 3SM -SHSN SCT005 BKN015
      TEMPO 1518/1519 1SM -SHSN
     FM151900 31010G19KT P6SM BKN025
     FM152200 31011G16KT 6SM BR BKN035
     FM152300 32010G15KT P6SM SCT040
     FM160200 33006KT P6SM SCT100
     FM160400 33004KT P6SM SKC
     FM160600 00000KT P6SM SKC
     FM161700 09004KT P6SM SKC=

USA.gov is the U.S. government's official web portal to all federal, state and local government web resources and services.